Simultaneous Nadir Overpasses (SNOs) Predictions

Prediction of SNOs between LANDSAT-8 and METOP-A Satellite Orbit:

Table of predicted SNOs for the next 14.0 days since TLE Epoch: 6/10/2015
Index Date (LANDSAT-8) Time (LANDSAT-8) Lat,Lon (LANDSAT-8) SZA (LANDSAT-8 ) Date (METOP-A) Time (METOP-A) Lat,Lon (METOP-A) SZA (METOP-A ) Distance(km) Time Diff (sec)
1 06/12/2015 00:55:04 81.20,-152.64 60.37 06/12/2015 00:54:18 81.19,-152.69 60.34 0.92 46
2 06/12/2015 01:44:30 -81.21, 15.31 119.59 06/12/2015 01:44:57 -81.21, 15.24 119.59 1.19 27
3 06/14/2015 20:29:21 81.19, -86.34 60.18 06/14/2015 20:28:38 81.19, -86.34 60.16 0.45 43
4 06/14/2015 21:18:47 -81.21, 81.63 119.78 06/14/2015 21:19:17 -81.21, 81.62 119.77 0.37 30
5 06/17/2015 16:03:37 81.19, -19.81 60.07 06/17/2015 16:02:57 81.20, -19.67 60.07 2.49 40
6
